Back to catalog

CAPELLA-16

ACADIA

AliveScienceSSO
NORAD 65318·PAYLOAD·🇺🇸 United States

Launched Aug 26, 2025 from Vandenberg Space Force Base

Loading…

Next Passes (next 24 hours)

TLE

FreshSource: Space-Track

Epoch: Sep 14, 2026, 14:58 UTC

1 65318U 25188D   26257.62384967  .00005162  00000-0  48179-3 0  9990
2 65318  97.7319 331.4487 0002605 310.0899  50.0092 14.94618057 57276

Track CAPELLA-16 in real time with AllMySat

Download on the App Store